Regional Weather Roundup
Issued by NWS

Home | Current Version | Previous Version | Graphics & Text | Print | Product List | Glossary On
Versions: 1 2 3 4 5 6 7 8 9 10 11 12 13 14 15 16 17 18 19 20 21 22 23 24 25 26 27 28 29 30 31 32 33 34 35 36 37 38 39 40 41 42 43 44 45 46 47 48 49 50
000
ASUS43 KBIS 180210
RWRND

NORTH DAKOTA REGIONAL WEATHER ROUNDUP
NATIONAL WEATHER SERVICE BISMARCK ND
900 PM CDT THU APR 17 2014

NOTE: "FAIR" INDICATES FEW OR NO CLOUDS BELOW 12,000 FEET WITH NO
SIGNIFICANT WEATHER AND/OR OBSTRUCTIONS TO VISIBILITY.


NDZ001>003-009>011-017-180300-
NORTHWEST NORTH DAKOTA

CITY           SKY/WX    TMP DP  RH WIND       PRES   REMARKS
WILLISTON      CLOUDY    41  27  57 SE8       30.02F
MINOT          CLOUDY    37  21  52 E10       30.13S
MINOT AFB      CLOUDY    37  23  56 E13       30.12F
$$

NDZ018>021-031>035-040>046-180300-
SOUTHWEST NORTH DAKOTA

CITY           SKY/WX    TMP DP  RH WIND       PRES   REMARKS
BISMARCK       CLOUDY    42  25  50 S9        30.14S
DICKINSON      MOCLDY    40  25  55 SE14      30.00S
GARRISON         N/A     39  24  55 SE10      30.11S
HETTINGER ARPT PTCLDY    40  28  62 E12       30.02S
$$

NDZ004>008-012>016-024-026-027-054-180300-
NORTHEAST NORTH DAKOTA

CITY           SKY/WX    TMP DP  RH WIND       PRES   REMARKS
GRAND FORKS    MOCLDY    33  19  56 N5        30.30R
GRND FRKS AFB  MOCLDY    33  11  40 E6        30.29S
DEVILS LAKE    CLOUDY    36  14  41 E14G20    30.22S
$$

NDZ022-023-025-028>030-036>039-047>053-180300-
SOUTHEAST NORTH DAKOTA

CITY           SKY/WX    TMP DP  RH WIND       PRES   REMARKS
FARGO          PTCLDY    38  17  42 NE6       30.28R
JAMESTOWN      CLOUDY    36  19  50 E8        30.20S
$$




USA.gov is the U.S. government's official web portal to all federal, state and local government web resources and services.